SCP
0 0 0 0 0 0 0 0 0 0 0 0 0 0 0 0 0 0 0 0 0 0 0 0 0 -0 -0 -0 0 0 0 0 0 0 0 0 -0 0 0 -0 0 0 0 0 0 0 0
0 0 0 0 0 0 0 0 0 0 0 0 0 0 0 0 0 0 0 0 0 0 0 0 -0 -0 -0 0 0 0 0 0 -0 0 -0 -0 -0 0 0 -0 -0 -0 0 -0 0 -0 0
0 0 0 0 0 0 0 0 0 0 0 0 0 0 -0 -0 -0 0 0 0 0 0 0 0 -0 -0 -0 -0 0 0 0 0 -0 0 0 -0 0 -0 0 0 0 0 0 0 0 0 -0
0 0 0 0 0 0 0 0 0 0 0 0 0 0 -0 -0 -0 -0 -0 0 0 0 0 0 0 -0 -0 0 0 0 0 0 -0 -0 -0 0 0 0 0 0 0 0 -0 0 -0 0 0
0 0 0 0 0 0 0 0 0 0 0 0 0 0 -0 -0 -0 -0 -0 -0 0 -0 -0 -0 -0 -0 -0 0 0 0 -0 0 0 0 0 0 0 0 0 0 0 -0 0 0 0 0 -0
0 0 0 0 0 0 0 0 0 0 0 0 0 0 -0 -0 -0 -0 -0 -0 0 -0 -0 -0 -0 -0 -0 -0 0 0 0 -0 0 0 0 -0 0 0 0 -0 -0 0 0 0 0 0 0
0 0 0 0 0 0 0 0 0 0 0 0 0 0 -0 -0 -0 -0 -0 0 0 0 0 0 0 0 -0 0 0 0 0 -0 0 0 0 -0 0 -0 0 0 -0 -0 0 -0 0 0 0
0 0 0 0 0 0 0 0 0 0 0 0 0 0 -0 -0 -0 -0 0 0 0 0 0 -0 -0 -0 -0 0 0 -0 0 -0 0 0 0 -0 -0 -0 -0 0 -0 -0 0 0 -0 0 0
0 0 0 0 0 0 0 0 0 0 0 0 0 0 -0 -0 -0 0 0 0 0 0 0 0 -0 0 0 0 0 0 0 -0 0 0 -0 -0 -0 -0 0 0 0 -0 0 0 0 0 0
0 0 0 0 0 0 0 0 0 0 0 0 0 0 0 -0 0 0 0 0 0 0 -0 -0 0 0 0 0 -0 -0 0 -0 0 0 0 0 0 0 0 -0 0 -0 0 -0 0 0 0
0 0 0 0 0 0 0 0 0 0 0 0 0 0 0 0 0 0 0 0 -0 0 -0 0 0 0 0 0 0 -0 0 -0 -0 0 0 0 0 0 0 0 0 -0 0 0 0 0 -0
0 0 0 0 0 0 0 0 0 0 0 0 0 0 0 0 0 0 0 -0 0 0 -0 0 0 -0 -0 0 -0 0 0 0 -0 0 0 0 0 0 0 0 -0 0 -0 0 0 -0 0
0 0 0 0 0 0 0 0 0 0 0 0 0 0 0 0 0 0 0 0 0 0 0 -0 -0 0 -0 0 -0 0 0 0 0 0 0 0 0 -0 0 -0 -0 0 0 0 0 -0 0
0 0 0 0 0 0 0 0 0 0 0 0 0 0 0 0 0 0 0 0 0 0 0 0 0 0 -0 0 0 0 0 0 0 0 0 0 0 -0 0 0 0 0 -0 -0 0 0 0
0 0 0 0 0 0 0 0 0 0 0 0 0 0 0 0 0 0 0 0 0 0 0 0 0 0 -0 0 -0 0 0 0 0 0 0 0 0 0 0 0 0 0 -0 0 0 0 0
0 0 0 0 0 0 0 0 0 0 0 0 0 0 0 0 0 0 0 -0 0 0 0 0 0 0 -0 0 0 0 0 0 0 0 0 0 0 0 -0 0 0 0 0 0 0 0 0
0 0 0 0 0 0 0 0 0 0 0 0 0 0 0 -0 0 0 0 -0 -0 0 0 0 0 0 0 0 0 0 0 0 0 0 -0 0 0 0 0 0 0 0 0 0 0 0 0
0 0 0 0 0 0 0 0 0 0 0 0 0 0 0 0 0 0 0 -0 0 0 0 0 0 0 0 0 0 0 0 0 0 0 0 0 0 0 0 0 0 0 0 0 0 0 0
0 0 0 0 0 0 0 0 0 0 0 0 0 0 -0 0 0 0 0 0 -0 0 0 0 0 0 0 0 0 0 0 0 0 0 0 0 0 0 0 0 0 0 0 0 0 0 0
0 0 0 0 0 0 0 0 0 0 0 0 0 0 -0 0 0 0 0 0 0 0 0 0 0 0 0 0 0 0 0 0 0 0 0 0 0 0 0 0 0 0 0 0 0 0 0
0 0 0 0 0 0 0 0 0 0 0 0 0 0 0 0 0 0 0 0 0 0 0 0 0 0 0 0 0 0 0 0 -0 0 0 0 0 0 0 0 0 0 0 0 0 0 -0
0 0 0 0 0 0 0 0 0 0 0 0 0 0 0 0 0 0 0 0 0 0 0 0 0 0 0 0 0 0 0 0 0 0 0 0 0 0 0 0 -0 0 0 0 0 0 0
0 0 0 0 0 0 0 0 0 0 0 0 0 0 0 0 0 0 0 0 0 0 0 0 0 0 0 0 0 0 0 0 0 0 1 0 0 0 0 0 0 0 -0 0 0 0 0
0 0 0 0 0 0 0 0 0 0 0 0 0 0 0 0 0 0 0 0 -0 0 0 0 0 0 0 0 0 0 0 0 0 0 0 0 0 0 0 0 0 0 0 -0 0 0 0
0 0 0 0 0 0 0 0 0 0 0 0 0 0 0 0 0 0 0 0 0 0 0 0 0 0 0 0 0 0 0 0 0 0 0 1 1 0 0 0 0 1 0 0 0 0 0
0 0 0 0 0 0 0 0 0 0 0 0 0 0 0 0 0 0 0 0 0 0 0 -0 0 0 0 0 0 0 0 0 0 0 0 0 1 1 0 0 0 0 0 0 0 1 0
0 0 0 0 0 0 0 0 0 0 0 0 0 0 0 0 0 0 0 0 0 0 0 0 0 0 0 0 0 0 0 0 0 0 0 0 0 0 0 0 0 0 0 0 0 1 1
0 0 0 0 0 0 0 0 0 0 0 0 0 0 0 0 0 0 0 0 0 0 0 0 0 0 0 0 0 0 0 0 0 0 0 0 0 0 0 0 0 0 0 0 0 -0 -0
0 0 0 0 0 0 0 0 0 0 0 0 0 0 0 0 0 0 0 0 0 0 0 0 0 0 0 0 0 0 0 0 0 0 0 0 0 0 0 0 -0 -0 0 0 0 0 0
Wind_Speed_500mb
3 2 4 7 10 13 17 21 24 27 30 32 36 38 39 40 44 47 47 45 43 37 33 29 24 20 19 15 20 4 10 12 18 29 15 22 27 31 30 27 29 20 11 7 6 12 5
3 1 3 5 8 12 15 19 23 27 30 33 36 39 42 43 45 48 47 45 39 33 28 22 19 17 14 22 5 6 8 14 17 22 21 28 21 32 33 31 26 29 11 14 11 17 6
4 2 3 6 9 11 15 19 23 27 31 34 36 40 43 47 48 49 47 42 34 30 20 18 16 16 18 26 4 4 19 20 20 21 21 21 25 29 37 26 39 23 11 13 15 11 9
6 3 3 7 11 15 18 21 25 28 32 36 39 42 45 47 51 50 42 39 30 25 16 15 13 16 17 19 14 17 20 22 22 25 22 21 23 29 37 35 18 17 20 23 26 16 6
9 5 4 7 11 15 20 23 26 30 33 37 42 44 46 49 51 47 37 34 25 19 15 14 8 9 29 20 23 24 25 27 25 24 20 15 14 30 25 29 17 28 24 34 25 23 17
12 9 7 8 11 15 19 23 28 31 34 38 42 46 47 49 51 40 30 32 28 21 13 15 19 17 29 24 19 26 26 27 29 26 24 23 24 25 28 22 25 30 34 29 24 22 24
15 13 11 12 14 17 21 25 28 32 37 40 44 47 49 48 47 31 32 37 26 2 15 33 37 32 12 9 14 20 26 30 31 29 27 35 26 29 36 37 36 36 37 38 17 24 22
19 17 16 17 19 22 26 29 32 36 39 42 45 48 50 48 35 27 31 26 21 27 35 40 47 40 39 13 20 26 30 33 34 30 32 29 32 34 32 36 43 41 32 24 36 34 23
23 22 21 21 22 25 29 32 35 38 41 44 45 48 51 49 22 26 24 16 25 34 22 40 45 43 39 33 30 32 37 44 32 31 35 36 36 35 31 35 32 36 31 28 24 20 14
27 25 24 24 25 28 31 34 36 38 41 44 46 45 47 54 13 30 16 24 30 32 12 27 16 21 38 34 36 36 40 41 23 30 33 32 40 33 36 33 21 26 34 36 32 23 22
31 29 28 28 28 29 31 32 35 37 39 41 44 44 42 38 44 24 32 37 34 20 12 11 19 18 20 44 24 37 42 42 36 23 24 35 28 34 26 30 27 32 38 33 20 26 25
34 32 31 29 27 27 28 30 33 36 38 40 42 41 44 29 34 31 34 36 23 11 17 4 15 17 26 36 44 20 35 38 36 31 33 35 39 35 31 32 38 43 41 30 23 22 23
38 35 32 30 28 27 29 31 34 36 40 44 45 40 40 40 32 25 32 25 11 16 12 10 14 15 22 24 35 20 30 26 28 23 23 30 45 39 30 37 41 43 19 14 19 22 19
40 37 34 31 30 29 31 33 34 36 42 49 50 44 37 43 28 24 21 17 16 26 28 21 5 16 23 28 34 32 26 28 30 29 9 17 23 41 30 48 37 37 30 22 25 19 27
43 38 36 34 32 32 33 36 38 40 43 52 52 40 33 30 26 20 19 19 26 30 29 12 21 17 28 30 35 34 32 31 35 35 15 16 38 38 35 33 29 25 37 38 25 26 14
47 43 39 36 35 35 35 36 38 39 40 42 50 44 42 30 28 20 17 32 35 41 10 19 20 27 28 16 31 33 34 38 31 40 38 8 15 30 45 38 40 29 28 20 17 20 13
49 44 39 34 34 33 33 35 34 32 30 28 35 19 4 30 21 25 21 31 36 47 13 10 24 24 22 25 31 33 33 25 42 37 43 27 10 26 34 33 38 32 29 19 21 12 16
51 44 38 35 34 35 35 34 34 31 22 15 17 13 23 24 23 29 25 38 48 34 13 15 17 16 16 24 23 38 25 30 34 48 42 29 8 17 26 23 33 31 31 23 15 14 17
50 43 39 36 35 36 33 35 31 25 14 16 19 36 25 23 17 23 37 39 47 28 22 9 17 27 17 23 9 28 36 22 9 24 33 29 12 12 15 18 18 16 26 17 11 7 9
47 41 40 37 36 37 33 30 27 19 11 8 15 9 29 29 40 35 29 25 32 18 28 15 17 26 16 17 22 27 36 7 5 13 8 8 19 19 18 18 7 11 31 19 9 1 19
45 42 41 40 38 37 31 29 26 19 13 7 15 12 9 7 24 30 31 31 19 27 24 20 17 24 22 11 19 31 37 30 42 15 13 7 15 21 29 8 11 54 33 38 30 32 26
43 46 47 44 40 36 31 32 29 22 16 14 14 27 32 36 23 23 24 28 30 16 10 20 19 21 24 16 22 8 38 10 33 22 14 11 15 22 29 24 48 8 45 45 37 31 27
47 47 48 45 41 37 36 35 30 23 18 11 14 21 17 24 19 17 17 25 26 32 25 18 7 15 10 4 11 16 6 52 14 10 26 16 14 14 26 29 37 33 17 32 9 36 21
41 44 42 43 39 41 43 42 36 31 28 17 8 20 18 17 23 20 30 28 35 9 13 26 6 12 7 11 12 17 21 57 30 34 13 15 16 16 21 24 37 28 6 37 20 18 10
36 36 38 38 39 44 45 45 43 39 32 35 14 13 16 19 30 34 20 19 13 16 14 21 23 13 6 4 6 10 23 26 37 23 33 6 12 11 14 22 3 29 38 29 9 12 11
36 33 31 31 33 39 46 44 44 44 35 33 18 9 17 22 9 32 24 13 12 14 23 37 11 6 3 7 10 17 15 12 10 18 31 6 10 9 17 8 6 3 34 63 44 18 38
35 31 28 27 27 27 36 39 43 46 38 34 16 18 12 27 33 20 16 20 23 16 11 15 24 9 17 10 17 15 21 5 20 28 6 11 13 13 11 5 6 11 21 45 8 3 30
31 32 30 27 25 23 27 36 42 46 38 36 19 15 19 22 31 24 19 16 25 22 13 21 13 16 15 18 17 19 13 14 18 16 16 8 3 8 12 4 7 15 15 4 9 9 14
30 34 32 29 26 24 23 33 40 41 39 37 19 11 19 24 32 29 27 29 21 14 18 20 23 14 16 8 12 8 5 8 19 9 7 7 2 10 13 10 17 13 18 10 12 22 20
Wind_Direction_500mb
241 304 337 336 337 340 342 343 342 343 344 345 342 340 339 336 332 330 328 327 326 325 320 318 315 312 305 279 254 250 200 186 190 187 235 216 222 209 238 226 242 247 220 321 85 151 273
222 294 335 341 344 343 343 343 343 344 344 345 343 339 338 338 332 330 329 327 326 323 320 318 313 307 291 257 228 197 207 188 183 195 230 224 220 216 244 238 231 230 180 214 157 195 135
208 261 330 341 345 349 350 348 348 346 345 344 342 340 339 337 334 332 330 327 324 321 318 312 309 304 262 239 192 259 182 185 190 202 218 235 227 227 248 268 250 280 218 204 206 186 203
204 234 315 341 348 351 351 351 349 348 344 343 342 341 340 337 336 333 333 326 322 316 310 302 298 300 256 203 215 209 201 198 201 212 248 278 256 274 247 269 222 238 231 216 205 214 205
207 226 287 325 338 342 344 345 346 345 344 343 341 340 340 338 336 337 336 328 320 310 296 291 295 286 264 221 222 217 211 203 203 216 226 280 253 244 240 255 212 240 225 240 186 169 226
218 230 258 292 315 324 329 333 335 337 337 338 338 338 340 339 338 344 346 335 319 306 302 280 248 271 248 238 209 208 211 208 200 209 222 221 223 225 239 221 210 214 234 245 204 175 243
225 240 259 278 294 306 313 318 323 326 328 330 332 333 336 339 341 355 5 1 340 231 307 268 283 252 291 165 154 208 206 206 198 215 222 210 226 212 218 222 238 208 219 242 217 183 195
234 245 261 276 288 297 302 307 310 312 315 320 323 326 330 336 344 7 355 350 13 329 306 279 259 248 249 227 211 217 197 205 198 212 217 231 228 232 235 217 227 246 253 214 244 166 183
240 251 263 274 284 293 299 302 305 306 307 308 311 318 325 329 336 355 332 342 336 332 288 289 241 228 227 222 243 200 194 210 205 223 216 231 212 235 236 248 233 241 253 267 164 142 227
243 253 263 274 284 291 296 300 302 304 305 305 303 306 318 326 338 330 352 339 333 329 276 262 183 220 210 208 234 234 193 208 223 219 247 237 255 207 225 243 226 252 242 243 207 168 219
245 254 262 272 281 288 294 299 302 303 305 308 307 300 301 324 317 322 318 323 320 319 287 157 115 132 188 191 117 213 192 215 233 228 238 246 228 250 249 214 234 235 245 256 207 203 236
247 254 262 268 274 282 290 297 301 305 308 308 308 309 294 303 299 303 311 313 314 239 248 148 150 194 215 205 230 196 210 209 230 248 265 251 252 238 233 232 218 226 263 214 255 226 212
245 251 256 262 268 277 286 293 299 304 308 308 306 304 292 282 277 299 318 317 247 244 224 252 239 163 210 193 226 167 195 206 222 225 249 276 259 242 214 227 218 222 225 210 218 233 228
238 243 250 255 263 272 280 288 293 300 307 310 306 299 291 267 270 291 303 270 252 268 264 357 341 307 302 213 213 173 207 208 213 246 256 250 249 258 195 221 209 208 214 225 205 223 235
236 237 240 249 257 266 276 284 290 297 305 309 311 305 281 259 250 242 257 238 236 252 334 296 330 287 255 247 258 197 193 222 197 215 207 290 239 240 236 233 220 205 228 235 282 263 250
231 234 238 247 257 267 278 286 293 294 302 312 316 310 277 210 206 214 236 246 267 271 225 312 283 284 304 307 237 246 201 199 210 204 220 277 303 297 199 220 249 219 220 253 256 270 279
227 231 240 248 261 272 280 288 298 299 301 313 317 287 303 173 188 216 231 240 246 250 269 289 273 287 302 318 304 308 243 221 185 201 216 233 247 285 233 198 226 222 232 233 255 263 288
222 225 233 243 255 267 279 288 292 298 299 322 288 272 166 186 208 227 237 240 262 288 174 227 278 303 279 291 309 307 283 245 187 179 204 220 269 291 292 271 219 248 226 249 228 218 256
217 222 229 240 251 262 274 283 278 285 296 319 272 253 251 207 234 235 235 241 252 244 252 231 253 253 275 311 306 298 306 268 279 201 194 194 220 257 326 279 257 272 256 260 209 136 268
217 222 233 240 252 259 266 267 258 263 269 305 278 256 221 218 243 279 294 261 240 217 252 251 241 286 271 292 268 294 321 298 213 253 55 230 222 223 221 243 306 218 243 287 143 244 289
218 227 238 245 249 251 255 245 241 243 251 287 242 253 335 234 225 235 252 275 251 236 194 241 243 251 259 295 272 304 321 354 309 213 264 228 242 260 261 207 292 278 253 228 237 161 218
227 238 240 242 242 241 235 229 230 224 239 252 284 339 337 297 298 295 217 248 273 296 286 182 209 258 242 240 234 206 292 33 282 326 236 234 248 252 269 221 230 277 296 285 248 226 224
233 234 235 235 231 228 222 220 219 211 216 251 302 307 274 293 264 262 251 239 249 267 167 278 270 213 285 80 9 287 278 282 340 277 306 193 228 231 262 254 259 262 202 267 284 302 12
227 227 226 227 221 218 217 215 216 211 217 230 360 325 290 279 266 239 257 263 224 257 250 320 73 257 26 350 334 279 261 263 240 258 231 284 234 250 250 248 246 261 280 199 196 245 49
218 220 221 218 216 216 217 215 217 216 220 219 282 311 303 288 287 300 224 265 265 276 260 269 274 77 345 306 232 219 248 285 292 339 300 256 295 237 247 248 215 23 8 357 276 61 358
210 211 214 215 217 214 217 216 215 219 217 220 235 248 274 294 322 345 333 284 278 263 271 221 228 99 187 254 215 224 220 263 263 339 297 155 307 279 263 117 270 288 302 329 312 59 19
208 206 209 215 219 216 214 213 211 214 215 216 221 221 259 277 277 327 320 344 328 327 283 303 350 264 195 230 240 218 220 187 247 230 332 338 358 335 352 78 146 276 307 300 315 17 352
205 202 206 211 212 216 217 208 208 211 211 203 204 231 230 269 282 330 321 324 327 339 349 360 3 249 247 239 226 228 259 209 231 302 160 183 53 334 328 346 130 343 279 294 187 154 17
200 202 203 204 212 211 216 207 208 207 205 192 205 225 239 257 265 307 292 276 270 295 330 313 292 28 3 304 15 342 82 39 332 265 188 160 313 122 296 122 118 119 94 120 85 90 60
Wind_Speed_850mb
3 2 4 7 10 13 17 21 24 27 30 32 36 38 39 40 44 47 47 45 43 37 33 29 24 20 19 15 20 4 10 12 18 29 15 22 27 31 30 27 29 20 11 7 6 12 5
3 1 3 5 8 12 15 19 23 27 30 33 36 39 42 43 45 48 47 45 39 33 28 22 19 17 14 22 5 6 8 14 17 22 21 28 21 32 33 31 26 29 11 14 11 17 6
4 2 3 6 9 11 15 19 23 27 31 34 36 40 43 47 48 49 47 42 34 30 20 18 16 16 18 26 4 4 19 20 20 21 21 21 25 29 37 26 39 23 11 13 15 11 9
6 3 3 7 11 15 18 21 25 28 32 36 39 42 45 47 51 50 42 39 30 25 16 15 13 16 17 19 14 17 20 22 22 25 22 21 23 29 37 35 18 17 20 23 26 16 6
9 5 4 7 11 15 20 23 26 30 33 37 42 44 46 49 51 47 37 34 25 19 15 14 8 9 29 20 23 24 25 27 25 24 20 15 14 30 25 29 17 28 24 34 25 23 17
12 9 7 8 11 15 19 23 28 31 34 38 42 46 47 49 51 40 30 32 28 21 13 15 19 17 29 24 19 26 26 27 29 26 24 23 24 25 28 22 25 30 34 29 24 22 24
15 13 11 12 14 17 21 25 28 32 37 40 44 47 49 48 47 31 32 37 26 2 15 33 37 32 12 9 14 20 26 30 31 29 27 35 26 29 36 37 36 36 37 38 17 24 22
19 17 16 17 19 22 26 29 32 36 39 42 45 48 50 48 35 27 31 26 21 27 35 40 47 40 39 13 20 26 30 33 34 30 32 29 32 34 32 36 43 41 32 24 36 34 23
23 22 21 21 22 25 29 32 35 38 41 44 45 48 51 49 22 26 24 16 25 34 22 40 45 43 39 33 30 32 37 44 32 31 35 36 36 35 31 35 32 36 31 28 24 20 14
27 25 24 24 25 28 31 34 36 38 41 44 46 45 47 54 13 30 16 24 30 32 12 27 16 21 38 34 36 36 40 41 23 30 33 32 40 33 36 33 21 26 34 36 32 23 22
31 29 28 28 28 29 31 32 35 37 39 41 44 44 42 38 44 24 32 37 34 20 12 11 19 18 20 44 24 37 42 42 36 23 24 35 28 34 26 30 27 32 38 33 20 26 25
34 32 31 29 27 27 28 30 33 36 38 40 42 41 44 29 34 31 34 36 23 11 17 4 15 17 26 36 44 20 35 38 36 31 33 35 39 35 31 32 38 43 41 30 23 22 23
38 35 32 30 28 27 29 31 34 36 40 44 45 40 40 40 32 25 32 25 11 16 12 10 14 15 22 24 35 20 30 26 28 23 23 30 45 39 30 37 41 43 19 14 19 22 19
40 37 34 31 30 29 31 33 34 36 42 49 50 44 37 43 28 24 21 17 16 26 28 21 5 16 23 28 34 32 26 28 30 29 9 17 23 41 30 48 37 37 30 22 25 19 27
43 38 36 34 32 32 33 36 38 40 43 52 52 40 33 30 26 20 19 19 26 30 29 12 21 17 28 30 35 34 32 31 35 35 15 16 38 38 35 33 29 25 37 38 25 26 14
47 43 39 36 35 35 35 36 38 39 40 42 50 44 42 30 28 20 17 32 35 41 10 19 20 27 28 16 31 33 34 38 31 40 38 8 15 30 45 38 40 29 28 20 17 20 13
49 44 39 34 34 33 33 35 34 32 30 28 35 19 4 30 21 25 21 31 36 47 13 10 24 24 22 25 31 33 33 25 42 37 43 27 10 26 34 33 38 32 29 19 21 12 16
51 44 38 35 34 35 35 34 34 31 22 15 17 13 23 24 23 29 25 38 48 34 13 15 17 16 16 24 23 38 25 30 34 48 42 29 8 17 26 23 33 31 31 23 15 14 17
50 43 39 36 35 36 33 35 31 25 14 16 19 36 25 23 17 23 37 39 47 28 22 9 17 27 17 23 9 28 36 22 9 24 33 29 12 12 15 18 18 16 26 17 11 7 9
47 41 40 37 36 37 33 30 27 19 11 8 15 9 29 29 40 35 29 25 32 18 28 15 17 26 16 17 22 27 36 7 5 13 8 8 19 19 18 18 7 11 31 19 9 1 19
45 42 41 40 38 37 31 29 26 19 13 7 15 12 9 7 24 30 31 31 19 27 24 20 17 24 22 11 19 31 37 30 42 15 13 7 15 21 29 8 11 54 33 38 30 32 26
43 46 47 44 40 36 31 32 29 22 16 14 14 27 32 36 23 23 24 28 30 16 10 20 19 21 24 16 22 8 38 10 33 22 14 11 15 22 29 24 48 8 45 45 37 31 27
47 47 48 45 41 37 36 35 30 23 18 11 14 21 17 24 19 17 17 25 26 32 25 18 7 15 10 4 11 16 6 52 14 10 26 16 14 14 26 29 37 33 17 32 9 36 21
41 44 42 43 39 41 43 42 36 31 28 17 8 20 18 17 23 20 30 28 35 9 13 26 6 12 7 11 12 17 21 57 30 34 13 15 16 16 21 24 37 28 6 37 20 18 10
36 36 38 38 39 44 45 45 43 39 32 35 14 13 16 19 30 34 20 19 13 16 14 21 23 13 6 4 6 10 23 26 37 23 33 6 12 11 14 22 3 29 38 29 9 12 11
36 33 31 31 33 39 46 44 44 44 35 33 18 9 17 22 9 32 24 13 12 14 23 37 11 6 3 7 10 17 15 12 10 18 31 6 10 9 17 8 6 3 34 63 44 18 38
35 31 28 27 27 27 36 39 43 46 38 34 16 18 12 27 33 20 16 20 23 16 11 15 24 9 17 10 17 15 21 5 20 28 6 11 13 13 11 5 6 11 21 45 8 3 30
31 32 30 27 25 23 27 36 42 46 38 36 19 15 19 22 31 24 19 16 25 22 13 21 13 16 15 18 17 19 13 14 18 16 16 8 3 8 12 4 7 15 15 4 9 9 14
30 34 32 29 26 24 23 33 40 41 39 37 19 11 19 24 32 29 27 29 21 14 18 20 23 14 16 8 12 8 5 8 19 9 7 7 2 10 13 10 17 13 18 10 12 22 20
Wind_Direction_850mb
241 304 337 336 337 340 342 343 342 343 344 345 342 340 339 336 332 330 328 327 326 325 320 318 315 312 305 279 254 250 200 186 190 187 235 216 222 209 238 226 242 247 220 321 85 151 273
222 294 335 341 344 343 343 343 343 344 344 345 343 339 338 338 332 330 329 327 326 323 320 318 313 307 291 257 228 197 207 188 183 195 230 224 220 216 244 238 231 230 180 214 157 195 135
208 261 330 341 345 349 350 348 348 346 345 344 342 340 339 337 334 332 330 327 324 321 318 312 309 304 262 239 192 259 182 185 190 202 218 235 227 227 248 268 250 280 218 204 206 186 203
204 234 315 341 348 351 351 351 349 348 344 343 342 341 340 337 336 333 333 326 322 316 310 302 298 300 256 203 215 209 201 198 201 212 248 278 256 274 247 269 222 238 231 216 205 214 205
207 226 287 325 338 342 344 345 346 345 344 343 341 340 340 338 336 337 336 328 320 310 296 291 295 286 264 221 222 217 211 203 203 216 226 280 253 244 240 255 212 240 225 240 186 169 226
218 230 258 292 315 324 329 333 335 337 337 338 338 338 340 339 338 344 346 335 319 306 302 280 248 271 248 238 209 208 211 208 200 209 222 221 223 225 239 221 210 214 234 245 204 175 243
225 240 259 278 294 306 313 318 323 326 328 330 332 333 336 339 341 355 5 1 340 231 307 268 283 252 291 165 154 208 206 206 198 215 222 210 226 212 218 222 238 208 219 242 217 183 195
234 245 261 276 288 297 302 307 310 312 315 320 323 326 330 336 344 7 355 350 13 329 306 279 259 248 249 227 211 217 197 205 198 212 217 231 228 232 235 217 227 246 253 214 244 166 183
240 251 263 274 284 293 299 302 305 306 307 308 311 318 325 329 336 355 332 342 336 332 288 289 241 228 227 222 243 200 194 210 205 223 216 231 212 235 236 248 233 241 253 267 164 142 227
243 253 263 274 284 291 296 300 302 304 305 305 303 306 318 326 338 330 352 339 333 329 276 262 183 220 210 208 234 234 193 208 223 219 247 237 255 207 225 243 226 252 242 243 207 168 219
245 254 262 272 281 288 294 299 302 303 305 308 307 300 301 324 317 322 318 323 320 319 287 157 115 132 188 191 117 213 192 215 233 228 238 246 228 250 249 214 234 235 245 256 207 203 236
247 254 262 268 274 282 290 297 301 305 308 308 308 309 294 303 299 303 311 313 314 239 248 148 150 194 215 205 230 196 210 209 230 248 265 251 252 238 233 232 218 226 263 214 255 226 212
245 251 256 262 268 277 286 293 299 304 308 308 306 304 292 282 277 299 318 317 247 244 224 252 239 163 210 193 226 167 195 206 222 225 249 276 259 242 214 227 218 222 225 210 218 233 228
238 243 250 255 263 272 280 288 293 300 307 310 306 299 291 267 270 291 303 270 252 268 264 357 341 307 302 213 213 173 207 208 213 246 256 250 249 258 195 221 209 208 214 225 205 223 235
236 237 240 249 257 266 276 284 290 297 305 309 311 305 281 259 250 242 257 238 236 252 334 296 330 287 255 247 258 197 193 222 197 215 207 290 239 240 236 233 220 205 228 235 282 263 250
231 234 238 247 257 267 278 286 293 294 302 312 316 310 277 210 206 214 236 246 267 271 225 312 283 284 304 307 237 246 201 199 210 204 220 277 303 297 199 220 249 219 220 253 256 270 279
227 231 240 248 261 272 280 288 298 299 301 313 317 287 303 173 188 216 231 240 246 250 269 289 273 287 302 318 304 308 243 221 185 201 216 233 247 285 233 198 226 222 232 233 255 263 288
222 225 233 243 255 267 279 288 292 298 299 322 288 272 166 186 208 227 237 240 262 288 174 227 278 303 279 291 309 307 283 245 187 179 204 220 269 291 292 271 219 248 226 249 228 218 256
217 222 229 240 251 262 274 283 278 285 296 319 272 253 251 207 234 235 235 241 252 244 252 231 253 253 275 311 306 298 306 268 279 201 194 194 220 257 326 279 257 272 256 260 209 136 268
217 222 233 240 252 259 266 267 258 263 269 305 278 256 221 218 243 279 294 261 240 217 252 251 241 286 271 292 268 294 321 298 213 253 55 230 222 223 221 243 306 218 243 287 143 244 289
218 227 238 245 249 251 255 245 241 243 251 287 242 253 335 234 225 235 252 275 251 236 194 241 243 251 259 295 272 304 321 354 309 213 264 228 242 260 261 207 292 278 253 228 237 161 218
227 238 240 242 242 241 235 229 230 224 239 252 284 339 337 297 298 295 217 248 273 296 286 182 209 258 242 240 234 206 292 33 282 326 236 234 248 252 269 221 230 277 296 285 248 226 224
233 234 235 235 231 228 222 220 219 211 216 251 302 307 274 293 264 262 251 239 249 267 167 278 270 213 285 80 9 287 278 282 340 277 306 193 228 231 262 254 259 262 202 267 284 302 12
227 227 226 227 221 218 217 215 216 211 217 230 360 325 290 279 266 239 257 263 224 257 250 320 73 257 26 350 334 279 261 263 240 258 231 284 234 250 250 248 246 261 280 199 196 245 49
218 220 221 218 216 216 217 215 217 216 220 219 282 311 303 288 287 300 224 265 265 276 260 269 274 77 345 306 232 219 248 285 292 339 300 256 295 237 247 248 215 23 8 357 276 61 358
210 211 214 215 217 214 217 216 215 219 217 220 235 248 274 294 322 345 333 284 278 263 271 221 228 99 187 254 215 224 220 263 263 339 297 155 307 279 263 117 270 288 302 329 312 59 19
208 206 209 215 219 216 214 213 211 214 215 216 221 221 259 277 277 327 320 344 328 327 283 303 350 264 195 230 240 218 220 187 247 230 332 338 358 335 352 78 146 276 307 300 315 17 352
205 202 206 211 212 216 217 208 208 211 211 203 204 231 230 269 282 330 321 324 327 339 349 360 3 249 247 239 226 228 259 209 231 302 160 183 53 334 328 346 130 343 279 294 187 154 17
200 202 203 204 212 211 216 207 208 207 205 192 205 225 239 257 265 307 292 276 270 295 330 313 292 28 3 304 15 342 82 39 332 265 188 160 313 122 296 122 118 119 94 120 85 90 60